Flag for Ukraine Weather past 2 weeks in Kryvyi Rih, Ukraine

34 °F

Passing clouds.

Feels Like: 27 °F
Forecast: 31 / 36 °F
Wind: 8 mph from Northeast

Location: Krivyy Rih / Dnipropetrovs'k

Current Time: Nov 26, 2015 at 8:40:09 PM

Latest Report: Nov 26, 2015 at 8:00 PM

Visibility: N/A

Pressure: 30.01 "Hg

Humidity: 81%

Dew point: 28 °F

Location of Kryvyi RihLocation

Historic Weather in Kryvyi Rih — Graph


Kryvyi Rih temperature yesterday

Maximum temperature yesterday: 39 °F (at 1:00 PM)
Minimum temperature yesterday: 36 °F (at 12:00 AM)
Average temperature yesterday: 37 °F

Past Weeks' High & Low Weather Summary

High61 °F (Nov 22, 12:00 PM)100% (Nov 14, 7:00 AM)30.33 "Hg (Nov 14, 7:00 AM)
Low30 °F (Nov 16, 1:00 AM)51% (Nov 12, 2:00 PM)29.36 "Hg (Nov 21, 12:00 PM)
Average44 °F85%29.90 "Hg
* Reported Nov 11 7:00 PM — Nov 26 7:30 PM, Kryvyi Rih, Weather by CustomWeather, © 2015

Note: Actual official high and low records may vary slightly from our data, if they occured in-between our weather recording intervals... More about our weather records


Kryvyi Rih weather history for previous 24 hours

Time TempWeatherWind HumidityBarometerVisibility
7:30 PM
Thu, Nov 26
34 °FPassing clouds.6 mph81%30.01 "HgN/A
7:00 PM34 °FPassing clouds.6 mph81%29.98 "HgN/A
6:30 PM34 °FPassing clouds.6 mph87%29.98 "HgN/A
6:00 PM34 °FPassing clouds.6 mph87%29.98 "HgN/A
5:30 PM36 °FOvercast.10 mph75%29.95 "HgN/A
5:00 PM36 °FOvercast.10 mph75%29.95 "HgN/A
4:30 PM37 °FOvercast.10 mph70%29.95 "HgN/A
4:00 PM37 °FOvercast.10 mph70%29.95 "HgN/A
3:30 PM37 °FOvercast.8 mph75%29.95 "HgN/A
3:00 PM37 °FOvercast.10 mph75%29.92 "HgN/A
2:30 PM37 °FOvercast.10 mph81%29.92 "HgN/A
2:00 PM37 °FOvercast.8 mph81%29.92 "HgN/A
1:30 PM37 °FBroken clouds.10 mph75%29.92 "HgN/A
1:00 PM37 °FBroken clouds.10 mph75%29.92 "HgN/A
12:30 PM37 °FBroken clouds.13 mph75%29.92 "HgN/A
12:00 PM37 °FBroken clouds.10 mph75%29.92 "HgN/A
11:30 AM37 °FBroken clouds.8 mph81%29.92 "HgN/A
11:00 AM37 °FBroken clouds.10 mph81%29.92 "HgN/A
10:30 AM37 °FBroken clouds.10 mph87%29.92 "HgN/A
10:00 AM37 °FBroken clouds.8 mph87%29.92 "HgN/A
9:30 AM36 °FBroken clouds.8 mph93%29.92 "HgN/A
9:00 AM36 °FFog.6 mph93%29.92 "Hg3 mi
8:30 AM34 °FFog.6 mph93%29.92 "Hg2 mi
8:00 AM34 °FFog.3 mph93%29.92 "Hg2 mi
7:30 AM34 °FFog.3 mph93%29.92 "Hg2 mi
6:30 AM36 °FFog.3 mph93%29.89 "Hg2 mi
6:00 AM36 °FFog.3 mph93%29.89 "Hg2 mi
5:00 AM36 °FFog.3 mph93%29.89 "Hg2 mi
4:30 AM36 °FFog.8 mph87%29.89 "Hg2 mi
4:00 AM36 °FOvercast.6 mph87%29.89 "HgN/A
3:30 AM36 °FOvercast.6 mph87%29.89 "HgN/A
3:00 AM36 °FOvercast.6 mph87%29.89 "HgN/A
2:30 AM36 °FLow clouds.6 mph93%29.92 "HgN/A
2:00 AM36 °FFog.6 mph93%29.92 "Hg3 mi
1:00 AM36 °FFog.6 mph93%29.89 "Hg3 mi
12:30 AM36 °FLight rain. Low clouds.8 mph93%29.89 "Hg2 mi
12:00 AM36 °FLight rain. Overcast.6 mph93%29.89 "Hg2 mi
11:30 PM
Wed, Nov 25
36 °FLight rain. Overcast.8 mph93%29.89 "Hg2 mi
11:00 PM36 °FLight rain. Overcast.8 mph93%29.92 "Hg2 mi
10:30 PM36 °FLight rain. Overcast.8 mph87%29.92 "Hg3 mi
10:00 PM36 °FLight rain. Overcast.8 mph87%29.92 "Hg3 mi
9:30 PM36 °FLight rain. Low clouds.8 mph93%29.92 "Hg3 mi
9:00 PM36 °FLight rain. Low clouds.8 mph93%29.92 "Hg3 mi
8:30 PM36 °FLight rain. Overcast.8 mph93%29.92 "Hg3 mi
8:00 PM36 °FLight rain. Low clouds.8 mph93%29.92 "Hg3 mi
Weather by CustomWeather, © 2015

See weather overviewHow to use our weather pages